Regional Weather Roundup
Issued by NWS Wakefield, VA

Home | Current Version | Previous Version | Graphics & Text | Print | Product List | Glossary On
Versions: 1 2 3 4 5 6 7 8 9 10 11 12 13 14 15 16 17 18 19 20 21 22 23 24 25 26 27 28 29 30 31 32 33 34 35 36 37 38 39 40 41 42 43 44 45 46 47 48 49 50
000
ASUS41 KAKQ 280115
RWRAKQ

REGIONAL WEATHER ROUNDUP
NATIONAL WEATHER SERVICE WAKEFIELD VA
900 PM EDT SAT MAY 27 2017

Note: "fair" indicates few or no clouds below 12,000 feet with no
significant weather and/or obstructions to visibility. * = Denotes
station may not report precipitation (e.g., rain,snow,etc.),
thunder or fog.

VAZ042-051-052>054-056-280200-
NORTHERN VIRGINIA

CITY           SKY/WX    TMP DP  RH WIND       PRES   REMARKS
WASH NATIONAL  MOCLDY    68  62  81 E6        29.88F
DULLES         MOCLDY    67  60  78 CALM      29.89S
FORT BELVOIR   PTCLDY    67  58  73 CALM      29.87F
QUANTICO       MOCLDY    70  62  76 NE9       29.88S
FREDERICKSBRG* CLOUDY    71  63  77 E6        29.87R
STAFFORD*      PTCLDY    67  62  83 N5        29.91R
WARRENTON      CLEAR     68  60  75 NE3       29.88R
CULPEPER*      CLEAR     68  64  88 CALM      29.90R
MANASSAS*      CLEAR     68  61  78 NE5       29.89
LEESBURG*      CLOUDY    68  64  88 N5        29.90S
WINCHESTER     CLOUDY    63  61  94 CALM      29.91R
FRONT ROYAL*   CLOUDY    64  63  94 CALM      29.90R
LURAY*         MOCLDY    66  63  88 NE12      29.89R
$$

VAZ048-049-060>072-079>083-280200-
CENTRAL AND SOUTH CENTRAL VIRGINIA

CITY           SKY/WX    TMP DP  RH WIND       PRES   REMARKS
RICHMOND       CLOUDY    67  63  87 S7        29.87R
CHESTERFIELD*  NOT AVBL
PETERSBURG*    TSTM      69  65  84 NE6       29.90R
HANOVER        CLOUDY    68  64  87 S5        29.88R
TAPPAHANNOCK*  CLOUDY    71  59  66 CALM      29.87R
QUINTON*       FAIR      67  67 100 CALM      29.88R
CHARLOTTSVILLE MOCLDY    70  67  90 NE7       29.89R
GORDONSVILLE*  CLOUDY    69  66  90 NE3       29.90R
ORANGE*        CLEAR     66  63  88 CALM      29.89R
LOUISA*        MOCLDY    72  68  88 CALM      29.88R
BUMPASS*       CLOUDY    67  67 100 W9        29.88R
FARMVILLE*     PTCLDY    74  63  66 CALM      29.84R
CREWE*         CLOUDY    70  66  86 CALM      29.88R
FORT PICKETT*  MOCLDY    67  64  87 NE10G22   29.88R
CHASE CITY*    FAIR      73  71  93 CALM      29.85R
CLARKSVILLE*   FAIR      72  72 100 SW3       29.84S
SOUTH HILL*    PTCLDY    74  70  86 CALM      29.90R
LAWRENCEVILLE* FAIR      71  61  70 CALM      29.86R
EMPORIA*         N/A     66  64  94 E6        29.88S
$$

VAZ088>098-280200-
SOUTHEAST VIRGINIA

CITY           SKY/WX    TMP DP  RH WIND       PRES   REMARKS
NORFOLK        LGT RAIN  74  68  81 S13       29.82F
VIRGINIA BEACH TSTM      69  66  90 SE8       29.82F
NORFOLK NAVAL  CLOUDY    73  67  81 NE9       29.85F THUNDER
WEST POINT*    CLOUDY    69  65  89 CALM      29.87R
SALUDA*        MOCLDY    69  66  90 E6        29.85R
NEWPORT NEWS   CLOUDY    70  67  90 NW5       29.85R
LANGLEY AFB    MOCLDY    70  68  94 S8        29.81F
FORT EUSTIS    CLOUDY    72  69  90 S3        29.82S
WILLIAMSBURG*  CLOUDY    73  70  88 SW3       29.86R
HR EXEC AP*    MOCLDY    72  68  88 NW7       29.84R THUNDER
FRANKLIN*      CLOUDY    74  69  85 NW7       29.88R
US460-WAKEFLD  MOCLDY    73  60  63 NW7       29.89R THUNDER
$$

VAZ020-022-025-037-045-280200-
WEST CENTRAL AND SOUTHWEST VIRGINIA

CITY           SKY/WX    TMP DP  RH WIND       PRES   REMARKS
STAUNTON*      CLOUDY    70  65  83 NE6       29.90S
WAYNESBORO*    CLOUDY    71  67  87 CALM      29.89R
HOT SPRINGS VA CLOUDY    66  54  63 W8        30.02R
LYNCHBURG      CLOUDY    76  64  66 W5        29.86F
DANVILLE       MOCLDY    75  69  81 SW7       29.86S
SOUTH BOSTON*  FAIR      74  69  87 CALM      29.84S
MARTINSVILLE   CLOUDY    72  67  85 CALM      29.91S
ROANOKE        CLOUDY    76  64  66 W5        29.90S
BLACKSBURG     LGT RAIN  71  64  77 W3        29.99R
DUBLIN*        LGT RAIN  72  63  73 SW7       29.98S
MARION*        RAIN      65  62  90 CALM      30.01F
HILLSVILLE*    LGT RAIN  67  61  80 CALM      30.01R
RICHLANDS*     FAIR      62  61  98 S3        29.98F
WISE*          CLOUDY    61  61 100 CALM      30.01S
ABINGDON*      RAIN      63  61  94 S3        29.97F
$$

MDZ021>025-VAZ099-100-280200-
SOUTHERN MARYLAND AND THE DELMARVA PENINSULA

CITY           SKY/WX    TMP DP  RH WIND       PRES   REMARKS
PATUXENT RIVER CLOUDY    69  66  90 NE6       29.87S
BAY BRIDGE APT CLOUDY    66  61  82 NE5       29.89S
LEONARDTOWN    CLOUDY    68  61  77 CALM      29.88S
DOVER          CLOUDY    63  63 100 E5        29.89S
GEORGETOWN     CLOUDY    66  56  70 E6        29.90S
EASTON         CLOUDY    66  59  77 E6        29.92F
CAMBRIDGE      CLOUDY    68  63  83 E5        29.87F
SALISBURY      MOCLDY    66  57  72 E8        29.88F
OCEAN CITY     CLOUDY    64  58  80 VRB6      29.89F
WALLOPS ISLAND CLOUDY    65  58  78 E8        29.88F
ACCOMACK*      CLOUDY    66  30  26 CALM      29.86F
$$

NCZ012>017-030>032-280200-
NORTH CENTRAL AND EASTERN NORTH CAROLINA

CITY           SKY/WX    TMP DP  RH WIND       PRES   REMARKS
ROANOKE RAPIDS MOCLDY    75  68  78 CALM      29.85R
RALEIGH        MOCLDY    77  67  71 SW8       29.87S
ELIZABETH CITY CLOUDY    79  69  71 S6        29.85S
AHOSKIE*       NOT AVBL
EDENTON*       CLOUDY    80  71  74 CALM      29.87R
CURRITUCK*     CLOUDY    78  67  69 CALM      29.86S
KILL DEVIL HLS CLOUDY    77  69  74 CALM      29.86S
MANTEO         CLOUDY    77  71  81 SW10      29.87S
CAPE HATTERAS  CLEAR     76  71  85 SW12      29.90R
TARBORO*       NOT AVBL
GOLDSBORO      CLEAR     80  68  65 S7        29.84S
WASHINGTON     CLOUDY    78  70  76 S5        29.87R
GREENVILLE     CLEAR     77  68  73 CALM      29.89R
NEW BERN       PTCLDY    77  71  82 S6        29.89R
WILMINGTON     CLEAR     77  68  73 SW10G17   29.89S
$$

VAZ048-280200-
ELSEWHERE

CITY           SKY/WX    TMP DP  RH WIND       PRES   REMARKS
HARRISBURG PA  MOCLDY    66  60  81 CALM      29.89S
BALTIMORE      MOCLDY    64  62  93 E7        29.89S
ANNAPOLIS      CLOUDY    67  64  90 N6        29.89S
ANDREWS AFB    CLOUDY    65  59  79 NE5       29.87F
PHILADELPHIA   MOCLDY    67  58  72 SW6       29.90R
HENDERSON NC   CLEAR     72  67  84 SW5       29.85S
GREENSBORO     CLOUDY    78  66  66 SW5       29.89R
ROCKY MOUNT    MOCLDY    75  69  81 CALM      29.85F
$$

VAZ100-280200-
MARINE

STATION/POSITION TIME  TEMP    WIND        PRES    WAVE   SWELL
                       AIR SEA DIR/SP/G            HT/PER HT/PER
                 (UTC) (F)     (DEG/KT/KT) (MB)    (FT/S) (FT/S)
CAPE MAY NJ      0048   61 64  120/  4/  5 1012.3F
LEWES DE         0048          120/  6/  8   N/A
15NM E FENWICK I 0050   62 61   90/  8/ 10 1012.9R   2/ 8   2/ 8
WACHAPREAGUE VA  0048   66 72   60/ 10/ 12 1010.8F
THOMAS POINT MD  0100   65 65   20/  6/  6   N/A
GOOSES REEF MD   0050   69      70/  4/  6 1012.2F
COVE POINT MD    0048   69      80/ 10/ 12 1012.0F
SOLOMONS ISLAND  0048           50/  6/  8   N/A
BISHOPS HEAD MD  0048   70 73  110/  9/ 10 1011.7F
PINEY POINT MD   0048          140/ 10/ 12   N/A
POTOMAC MD       0050   68     130/ 12/ 16 1010.0F
CAMBRIDGE MD     0036   69 71                N/A
LEWISETTA VA     0048   69 71  120/ 10/ 11 1010.9F
RAPPAHANNOCK LGT 0048           80/ 13/ 14 1011.0F
STINGRAY PT      0050   69     110/ 10/ 12 1010.6F
YORK RVR RNG VA  0048   71     140/  9/ 12 1009.5F
YORKTOWN VA      0048   71 70  240/  5/  5 1010.2F
JAMESTOWN VA     0050   73     220/  8/ 12   N/A
DOMINION TERM VA 0048   74      20/  7/ 10 1010.7F
KIPTOPEKE VA     0048      70  120/  9/ 12   N/A
CHES BAY BRIDGE  0048   70 67   20/  3/ 15 1010.1F
CAPE HENRY VA    0048   69     150/ 12/ 17   N/A
WILLOUBY STN VA  0048   72      20/  9/ 10 1010.3F
S CRANEY ISL VA  0048   76     210/  5/  7 1009.8F
CAPE HENRY BUOY  0042      67                N/A     2/ 7
1ST LANDING BUOY 0050   69                 1010.1F
CAPE CHARLES BUO 0051      67                N/A     2/ 7
64NM E OF VA BCH 0050   68 66  170/  6/  6 1011.7F   2/ 7   2/ 7
DUCK PIER NC     0048   80 64  210/ 11/ 13 1010.6F
44100 DUCK FRF   0035      68                N/A     2/ 8
44056 DUCK FRF   0030      67                N/A     2/ 8
OREGON INLET NC  0048          200/ 15/ 18   N/A
HATTERAS NC      0048   75 75  210/  9/ 12 1012.2R
DIAMOND SHLS NC  0050   78 78  230/ 17/ 19 1012.1R   3/ 7   2/ 7
CAPE LOOKOUT NC  0100   76     220/ 11/ 15 1012.1S
$$



USA.gov is the U.S. government's official web portal to all federal, state and local government web resources and services.